User: anonymous   Login
Location: Unspecified
(0.0000°N, 0.0000°E)
Time: 00:36:31
(UTC+00:00)
Language:

PAYLOAD H - Orbit

View from above orbital plane
View from above orbital plane
View from above satellite
View from above satellite

Ground track
Ground track

The orbit data is extracted from the following two-line orbital elements,

1 27847U 03031H   17206.53145294 +.00000012 +00000-0 +25209-4 0  9999
2 27847 098.6832 213.7047 0008671 204.0713 156.0061 14.22061881729863
Epoch (UTC): 25 July 2017 12:45:17
Eccentricity: 0.0008671
inclination: 98.6832°
perigee height: 812 km
apogee height: 824 km
right ascension of ascending node: 213.7047°
argument of perigee: 204.0713°
revolutions per day: 14.22061881
mean anomaly at epoch: 156.0061°
orbit number at epoch: 72986

The dashed part of the orbit path shows where the satellite is in the earth's shadow,  

DLR